Location: Gwatt
(46.7204°N, 7.6223°E)
Time: 08:17:26
(UTC+00:00)

S-56A Canister/Altair - Pass Details

Date: 26 January 2021
Orbit: 632 x 2501 km, 38.9° (Epoch: 08 March)

Event Time Altitude Azimuth Distance (km) Brightness Sun altitude
Rises 04:01:24 0° 258° (WSW) 2,920 - -30.6°
Reaches altitude 10° 04:03:49 10° 248° (WSW) 2,010 - -30.2°
Maximum altitude 04:07:45 31° 185° (S) 1,174 - -29.5°
Exits shadow 04:09:01 27° 156° (SSE) 1,326 8.8 -29.3°
Drops below altitude 10° 04:12:17 10° 124° (ESE) 2,333 10.6 -28.7°
Sets 04:15:18 0° 114° (ESE) 3,481 11.8 -28.2°
